Satellite: NOAA-17
Catalog number: 27453
Epoch time:      12201.75568078
Element set:    0775
Inclination:      098.3354 deg
RA of node:       227.1455 deg
Eccentricity:    0.0012647
Arg of perigee:   063.9805 deg
Mean anomaly:     296.2666 deg
Mean motion:   14.24460445 rev/day
Decay rate:       2.44e-06 rev/day^2
Epoch rev:           52339
Checksum:              322

Satellite: NOAA-18
Catalog number: 28654
Epoch time:      12201.81106137
Element set:    0256
Inclination:      099.0467 deg
RA of node:       160.1731 deg
Eccentricity:    0.0015201
Arg of perigee:   064.6683 deg
Mean anomaly:     295.6083 deg
Mean motion:   14.11674493 rev/day
Decay rate:       1.58e-06 rev/day^2
Epoch rev:           36916
Checksum:              298

Satellite: NOAA-19
Catalog number: 33591
Epoch time:      12201.82620462
Element set:    0446
Inclination:      098.8641 deg
RA of node:       141.2118 deg
Eccentricity:    0.0013294
Arg of perigee:   291.4108 deg
Mean anomaly:     068.5673 deg
Mean motion:   14.11362075 rev/day
Decay rate:       2.60e-06 rev/day^2
Epoch rev:           17761
Checksum:              284

/EX
SB KEPS @ AMSAT  $ORB12202.M
Orbital Elements  12202.MISC

HR AMSAT ORBITAL ELEMENTS FOR MANNED AND MISCELLANEOUS SATELLITES
FROM WA5QGD FORT WORTH,TX July 20, 2012
Send SUBSCRIBE KEPS/UNSUBSCRIBE KEPS to majordomo@amsat.org only
BID: ORB12202.M
TO ALL RADIO AMATEURS BT

Satellite: HUBBLE
Catalog number: 20580
Epoch time:      12201.67029279
Element set:      37
Inclination:      028.4717 deg
RA of node:       290.9586 deg
Eccentricity:    0.0003310
Arg of perigee:   047.7488 deg
Mean anomaly:     312.3240 deg
Mean motion:   15.02635383 rev/day
Decay rate:      1.482e-05 rev/day^2
Epoch rev:            1962
Checksum:              278

Satellite: ISS
Catalog number: 25544
Epoch time:      12202.86303361
Element set:     968
Inclination:      051.6441 deg
RA of node:       314.0699 deg
Eccentricity:    0.0000553
Arg of perigee:   260.8060 deg
Mean anomaly:     193.0038 deg
Mean motion:   15.54606717 rev/day
Decay rate:      7.823e-05 rev/day^2
Epoch rev:           78325
Checksum:              287

Satellite: CO-58
Catalog number: 28895
Epoch time:      12202.64954313
Element set:     230
Inclination:      097.9093 deg
RA of node:       067.4444 deg
Eccentricity:    0.0018680
Arg of perigee:   049.2776 deg
Mean anomaly:     311.0013 deg
Mean motion:   14.60680934 rev/day
Decay rate:       3.30e-06 rev/day^2
Epoch rev:           35854
Checksum:              307

Satellite: FALCON
Catalog number: 30776
Epoch time:      12202.89604595
Element set:     394
Inclination:      035.4308 deg
RA of node:       070.9142 deg
Eccentricity:    0.0003226
Arg of perigee:   298.5216 deg
Mean anomaly:     061.5177 deg
Mean motion:   15.07781171 rev/day
Decay rate:      2.584e-05 rev/day^2
Epoch rev:           29534
Checksum:              299

Satellite: MAST
Catalog number: 31126
Epoch time:      12201.97537560
Element set:    0517
Inclination:      097.8745 deg
RA of node:       211.1577 deg
Eccentricity:    0.0094305
Arg of perigee:   009.1920 deg
Mean anomaly:     351.0980 deg
Mean motion:   14.54203829 rev/day
Decay rate:       5.66e-06 rev/day^2
Epoch rev:           27903
Checksum:              291

Satellite: CAPE1
Catalog number: 31130
Epoch time:      12202.58965702
Element set:     521
Inclination:      097.8791 deg
RA of node:       208.0977 deg
Eccentricity:    0.0102054
Arg of perigee:   020.7265 deg
Mean anomaly:     339.8028 deg
Mean motion:   14.52995643 rev/day
Decay rate:       5.20e-06 rev/day^2
Epoch rev:           27862
Checksum:              296

Satellite: COMPASS
Catalog number: 32787
Epoch time:      12201.63468934
Element set:    0360
Inclination:      097.7986 deg
RA of node:       262.2515 deg
Eccentricity:    0.0014197
Arg of perigee:   318.1079 deg
Mean anomaly:     041.8948 deg
Mean motion:   14.84129881 rev/day
Decay rate:      1.765e-05 rev/day^2
Epoch rev:           22862
Checksum:              332

Satellite: AAUSAT2
Catalog number: 32788
Epoch time:      12202.74307427
Element set:     351
Inclination:      097.8009 deg
RA of node:       263.7348 deg
Eccentricity:    0.0013365
Arg of perigee:   314.3631 deg
Mean anomaly:     045.6451 deg
Mean motion:   14.84464490 rev/day
Decay rate:      1.660e-05 rev/day^2
Epoch rev:           22881
Checksum:              296

Satellite: DO-64
Catalog number: 32789
Epoch time:      12201.74591947
Element set:    0368
Inclination:      097.8111 deg
RA of node:       264.9062 deg
Eccentricity:    0.0013538
Arg of perigee:   313.5668 deg
Mean anomaly:     046.4374 deg
Mean motion:   14.86040519 rev/day
Decay rate:      3.690e-05 rev/day^2
Epoch rev:           22871
Checksum:              329

Satellite: CO-66
Catalog number: 32791
Epoch time:      12201.63729600
Element set:    0350
Inclination:      097.7992 deg
RA of node:       261.9686 deg
Eccentricity:    0.0014743
Arg of perigee:   318.1545 deg
Mean anomaly:     041.8422 deg
Mean motion:   14.83523491 rev/day
Decay rate:      1.313e-05 rev/day^2
Epoch rev:           22855
Checksum:              308

